This demonstration page uses our WeatherBlox Daily Observations layout. Learn more.

Left ArrowRight Arrow

Hourly Observations for March 4, 2020

Temp ( °F °C ) Dew Point ( °F °C ) Humidity (%) Winds ( mph kmh ) Pressure ( in mb ) Visibility ( mi km ) Precip ( " mm )
12:56 am 00:56 Clear 45 7.1 34 1 65 65 NW 14 22 29.90 1013 10 16 0.00 0.00
1:56 am 01:56 Clear 40 4.5 31 -0.3 71 71 NW 8 13 29.95 1014 10 16 0.00 0.00
2:56 am 02:56 Clear 37 2.6 30 -1.2 76 76 W 7 11 29.96 1015 10 16 0.00 0.00
3:56 am 03:56 Clear 32 -0.2 27 -2.6 84 84 WNW 6 9 29.98 1015 10 16 0.00 0.00
4:56 am 04:56 Clear 34 1.2 29 -1.4 83 83 W 5 7 29.99 1016 10 16 0.00 0.00
5:56 am 05:56 Clear 32 -0.2 28 -2.4 85 85 SW 6 9 30.01 1016 10 16 0.00 0.00
6:56 am 06:56 Sunny 29 -1.5 26 -3.1 89 89 Calm 30.03 1017 10 16 0.00 0.00
7:56 am 07:56 Sunny 35 1.7 30 -0.9 83 83 Calm 30.05 1018 10 16 0.00 0.00
8:56 am 08:56 Sunny 40 4.4 31 -0.4 71 71 WNW 7 11 30.03 1017 10 16 0.00 0.00
9:56 am 09:56 Sunny 46 7.8 31 -0.4 56 56 WNW 5 7 30.03 1017 10 16 0.00 0.00
10:56 am 10:56 Sunny 50 10.1 32 -0.1 49 49 NW 3 6 30.03 1017 10 16 0.00 0.00
11:56 am 11:56 Sunny 53 11.9 30 -1.3 40 40 Calm 30.00 1016 10 16 0.00 0.00
12:56 pm 12:56 Sunny 56 13.3 29 -1.8 35 35 SW 7 11 29.98 1015 10 16 0.00 0.00
1:56 pm 13:56 Sunny 59 15.2 26 -3.2 28 28 W 5 7 29.98 1015 10 16 0.00 0.00
2:56 pm 14:56 Sunny 63 17 24 -4.3 23 23 SSW 14 22 29.97 1015 10 16 0.00 0.00
3:56 pm 15:56 Sunny 63 17.4 20 -6.5 19 19 SSW 23 37 29.96 1014 9 14 0.00 0.00
4:56 pm 16:56 Sunny 63 17 22 -5.5 21 21 SSW 18 30 29.94 1014 10 16 0.00 0.00
5:56 pm 17:56 Sunny 60 15.5 20 -6.8 21 21 SSW 13 20 29.94 1014 10 16 0.00 0.00
6:56 pm 18:56 Clear 51 10.7 22 -5.3 32 32 S 7 11 29.95 1014 10 16 0.00 0.00
7:56 pm 19:56 Clear 50 9.8 22 -5.3 34 34 S 7 11 29.94 1014 10 16 0.00 0.00
8:56 pm 20:56 Clear 50 9.8 22 -5.3 34 34 S 9 15 29.93 1013 10 16 0.00 0.00
9:56 pm 21:56 Clear 49 9.3 24 -4.7 37 37 S 10 17 29.91 1013 10 16 0.00 0.00
10:56 pm 22:56 Clear 49 9.2 24 -4.4 38 38 S 10 17 29.88 1012 10 16 0.00 0.00
11:56 pm 23:56 Clear 47 8.3 24 -4.2 41 41 S 13 20 29.86 1011 10 16 0.00 0.00

Powered by AerisWeather